Regional Weather Roundup
Issued by NWS

Home | Current Version | Previous Version | Graphics & Text | Print | Product List | Glossary On
Versions: 1 2 3 4 5 6 7 8 9 10 11 12 13 14 15 16 17 18 19 20 21 22 23 24 25 26 27 28
000
ASUS45 KBOI 260510
RWRID

IDAHO REGIONAL WEATHER ROUNDUP
NATIONAL WEATHER SERVICE BOISE ID
1100 PM MDT SUN SEP 25 2016

NOTE: "FAIR" INDICATES FEW OR NO CLOUDS BELOW 12000 FEET
WITH NO SIGNIFICANT WEATHER AND/OR OBSTRUCTIONS TO VISIBILITY

IDZ012-014-260600-
SOUTHWEST IDAHO


CITY           SKY/WX    TMP DP  RH WIND       PRES   REMARKS
BOISE          CLEAR     58  34  40 CALM      30.36F
CALDWELL       CLEAR     56  40  55 CALM      30.34F
MOUNTAIN HOME  CLEAR     54  39  57 CALM      30.37F
$$

IDZ016-017-260600-
SOUTHCENTRAL IDAHO


CITY           SKY/WX    TMP DP  RH WIND       PRES   REMARKS
BURLEY         CLEAR     49  42  77 S5        30.42F
JEROME         CLEAR     53  41  63 E6        30.43S
TWIN FALLS     CLEAR     50  36  58 S9        30.43F
$$

IDZ019>023-260600-
SOUTHEAST IDAHO


CITY           SKY/WX    TMP DP  RH WIND       PRES   REMARKS
IDAHO FALLS    CLEAR     49  41  74 CALM      30.47S
POCATELLO      CLEAR     50  39  66 E7        30.45F
REXBURG        CLEAR     47  41  80 N3        30.47F
$$

IDZ006-010-011-018-031-032-260600-
CENTRAL IDAHO MOUNTAINS


CITY           SKY/WX    TMP DP  RH WIND       PRES   REMARKS
MCCALL         CLEAR     55  43  63 N3        30.45F
HAILEY         CLEAR     48  43  81 CALM      30.49S
STANLEY          N/A     43  38  82 S5        30.54S
SALMON         CLEAR     46  37  71 S3        30.44R
CHALLIS        CLEAR     52  40  63 VRB3      30.46S
$$

IDZ002-004-006-007-026-260600-
NORTHERN IDAHO


CITY           SKY/WX    TMP DP  RH WIND       PRES   REMARKS
LEWISTON       CLEAR     65  35  33 CALM      30.32S
LOWELL           N/A     52  47  83 NW3       30.42R
COEUR D`ALENE  NOT AVBL
MULLAN PASS    CLEAR     51  37  58 SW3       30.50S
$$




USA.gov is the U.S. government's official web portal to all federal, state and local government web resources and services.